Location: Bettgenhausen
(50.6463°N, 7.5681°E)
Time: 04:19:05
(UTC+00:00)

USA 238 - Pass Details

Date: 27 February 2020
Orbit: 1018 x 1194 km, 63.4° (Epoch: 31 March)

Event Time Altitude Azimuth Distance (km) Brightness Sun altitude
Rises 19:57:30 0° 315° (NW) 3,949 7.7 -27.4°
Reaches altitude 10° 20:00:11 10° 312° (NW) 3,012 6.9 -27.8°
Maximum altitude 20:07:13 59° 236° (SW) 1,326 4.2 -28.8°
Enters shadow 20:09:26 43° 182° (S) 1,586 4.3 -29.1°
